Flag for China Weather past 2 weeks in Dalian, Liaoning, China

Now
70 °F

Fog.


Feels Like: 70 °F
Forecast: 74 / 82 °F
Wind: 6 mph from South

Location: Dalian Airport

Current Time: Jul 29, 2014 at 6:04:48 AM

Latest Report: Jul 29, 2014 at 5:30 AM


Visibility: 1 mi

Pressure: 29.74 "Hg

Humidity: 88%

Dew point: 66 °F

Location of DalianLocation

Historic Weather in Dalian — Graph

°F

Dalian temperature yesterday

Maximum temperature yesterday: 82 °F (at 1:30 PM)
Minimum temperature yesterday: 72 °F (at 1:00 AM)
Average temperature yesterday: 76 °F

Past Weeks' High & Low Weather Summary

 TemperatureHumidityPressure
High91 °F (Jul 14, 10:30 AM)94% (Jul 17, 5:30 AM)29.89 "Hg (Jul 17, 5:30 AM)
Low66 °F (Jul 25, 3:00 AM)30% (Jul 14, 11:30 AM)29.53 "Hg (Jul 25, 4:30 PM)
Average78 °F71%29.73 "Hg
* Reported Jul 14 5:00 AM — Jul 29 5:00 AM, Dalian, Weather by CustomWeather, © 2014

Note: Actual official high and low records may vary slightly from our data, if they occured in-between our weather recording intervals... More about our weather records

Advertising

Dalian weather history for previous 24 hours

 ConditionsComfort  
Time TempWeatherWind HumidityBarometerVisibility
5:00 AM
Jul 29
70 °FFog.6 mph88%29.74 "Hg1 mi
4:30 AM70 °FFog.6 mph88%29.74 "Hg2 mi
4:00 AM70 °FFog.6 mph88%29.74 "Hg2 mi
3:30 AM70 °FFog.6 mph88%29.74 "Hg2 mi
3:00 AM70 °FFog.6 mph83%29.74 "Hg2 mi
2:30 AM72 °FFog.3 mph78%29.74 "Hg2 mi
2:00 AM72 °FFog.6 mph78%29.74 "Hg3 mi
1:30 AM72 °FFog.6 mph78%29.74 "Hg3 mi
1:00 AM72 °FFog.6 mph78%29.74 "Hg3 mi
12:30 AM72 °FClear.6 mph78%29.74 "Hg4 mi
12:00 AM72 °FClear.6 mph78%29.74 "Hg4 mi
11:30 PM
Jul 28
72 °FClear.6 mph73%29.74 "Hg4 mi
11:00 PM73 °FClear.10 mph69%29.74 "Hg4 mi
10:30 PM73 °FClear.6 mph69%29.74 "Hg4 mi
10:00 PM73 °FClear.13 mph65%29.74 "Hg4 mi
9:30 PM73 °FClear.6 mph69%29.74 "Hg4 mi
9:00 PM75 °FClear.8 mph61%29.74 "Hg4 mi
8:30 PM75 °FClear.6 mph61%29.74 "Hg4 mi
8:00 PM75 °FClear.6 mph61%29.71 "Hg4 mi
7:30 PM75 °FClear.6 mph61%29.71 "Hg4 mi
7:00 PM77 °FClear.8 mph57%29.71 "Hg4 mi
6:30 PM77 °FClear.8 mph54%29.71 "Hg4 mi
6:00 PM77 °FHaze.8 mph57%29.71 "Hg2 mi
5:30 PM77 °FHaze.10 mph57%29.71 "Hg2 mi
5:00 PM79 °FHaze.10 mph51%29.71 "Hg2 mi
4:30 PM81 °FHaze.8 mph51%29.71 "Hg2 mi
4:00 PM81 °FHaze.8 mph51%29.71 "Hg2 mi
3:30 PM82 °FHaze.8 mph45%29.74 "Hg2 mi
3:00 PM82 °FHaze.8 mph45%29.74 "Hg2 mi
2:30 PM81 °FHaze.8 mph48%29.74 "Hg2 mi
2:00 PM81 °FHaze.10 mph48%29.74 "Hg2 mi
1:30 PM82 °FHaze.10 mph45%29.74 "Hg2 mi
1:00 PM81 °FHaze.8 mph48%29.77 "Hg2 mi
12:30 PM81 °FHaze.8 mph54%29.77 "Hg2 mi
12:00 PM79 °FHaze.13 mph58%29.77 "Hg2 mi
11:30 AM81 °FHaze.13 mph51%29.77 "Hg2 mi
10:30 AM81 °FFog.10 mph54%29.77 "Hg2 mi
10:00 AM79 °FFog.10 mph58%29.77 "Hg2 mi
9:30 AM79 °FFog.8 mph61%29.77 "Hg1 mi
9:00 AM79 °FFog.8 mph65%29.77 "Hg1 mi
8:30 AM77 °FFog.6 mph69%29.77 "Hg1 mi
8:00 AM77 °FFog.8 mph65%29.77 "Hg1 mi
7:30 AM75 °FFog.6 mph69%29.77 "Hg1 mi
7:00 AM73 °FFog.6 mph78%29.77 "Hg1 mi
6:30 AM73 °FFog.6 mph74%29.77 "Hg1 mi
6:00 AM72 °FFog.6 mph78%29.77 "Hg1 mi
Weather by CustomWeather, © 2014

See weather overviewHow to use our weather pages